Theta_e
312 313 314 314 314 313 313 313 313 312 314 315 315 316 314 314 315 322 323 317 314 311 320 323 319 320 319 324 326 327 334 335 334 335 339 344 348 347 346 346 343 344 343 345 346
313 314 314 314 314 313 313 313 313 313 315 315 315 315 314 315 323 326 321 313 314 314 321 321 322 320 322 325 326 327 335 333 329 330 339 343 345 348 347 345 347 347 345 346 343
313 314 314 314 313 312 312 312 313 313 316 315 315 315 315 315 328 323 313 313 316 317 319 319 320 320 323 325 326 328 333 328 328 327 333 344 345 347 346 343 344 346 343 342 339
314 314 314 314 313 312 311 312 313 314 316 316 316 315 316 324 330 325 313 316 316 317 318 317 319 320 323 325 326 328 329 328 327 329 339 345 345 348 345 342 342 341 340 340 340
314 314 314 313 312 312 311 311 313 315 316 317 316 316 320 323 320 325 314 316 317 316 318 318 319 322 324 325 326 327 330 328 326 326 336 344 346 347 345 342 342 340 340 339 339
314 314 314 313 312 312 310 312 313 316 316 317 316 316 324 321 322 326 320 319 317 316 318 319 321 322 323 324 325 326 328 328 327 327 331 345 346 347 347 344 341 340 340 339 340
314 314 314 313 312 312 311 313 314 316 316 316 316 318 324 321 322 325 322 320 318 317 319 320 322 322 324 324 324 324 325 327 332 333 330 339 346 348 347 345 342 341 339 339 342
314 314 314 313 312 311 312 313 315 316 317 317 317 324 324 320 323 324 320 318 317 317 317 319 320 322 323 324 323 324 326 329 334 336 341 342 338 342 347 346 342 340 340 340 342
314 314 314 313 312 311 312 315 316 316 317 317 323 326 322 321 324 321 318 320 316 316 317 318 320 323 323 323 324 325 329 330 334 337 342 343 337 340 347 347 344 341 342 342 342
314 314 313 312 312 310 314 316 316 316 318 320 321 325 322 323 320 321 319 321 319 318 320 322 323 322 322 323 325 328 328 329 331 336 341 342 337 340 346 346 345 343 342 343 343
315 314 313 312 312 310 314 317 319 322 318 320 321 320 320 318 316 320 322 322 321 321 322 322 322 322 322 323 324 325 328 329 329 334 339 338 336 337 342 345 344 343 344 343 343
315 314 313 312 311 310 315 315 312 311 318 319 319 319 319 318 319 320 322 324 323 321 321 321 322 323 322 322 322 324 326 329 328 329 338 337 338 336 338 344 343 343 342 344 342
315 314 313 312 310 314 316 312 310 312 321 319 318 319 318 318 321 322 324 325 323 322 321 321 322 322 321 322 321 323 325 327 327 325 332 332 335 336 336 338 341 344 344 342 343
315 314 313 313 314 313 314 310 309 314 322 322 323 321 317 319 321 322 323 324 324 324 322 320 320 320 320 321 322 322 323 324 325 326 327 327 327 328 329 332 335 337 341 343 341
315 314 313 312 314 316 311 308 311 317 326 323 323 319 318 320 322 322 323 324 326 321 320 321 319 319 320 321 321 321 322 322 324 326 328 327 327 328 328 330 332 334 337 340 341
315 314 313 316 315 313 311 308 316 322 323 324 322 322 320 320 321 321 322 322 324 324 323 322 320 321 321 322 322 323 323 324 325 325 328 329 328 328 329 329 328 329 333 338 340
315 314 313 313 317 312 309 313 320 319 319 323 322 321 323 321 321 322 323 324 325 326 326 323 321 320 321 321 323 324 325 326 324 323 324 326 328 329 328 328 327 327 328 332 338
315 313 314 312 311 311 310 318 319 317 318 321 320 322 322 322 321 321 322 324 324 325 324 325 325 321 321 322 324 324 326 326 326 326 325 326 326 326 327 328 328 329 328 331 334
314 315 314 312 315 314 313 318 316 317 319 319 323 324 323 322 322 322 322 322 323 324 325 326 324 323 324 324 324 325 325 325 327 327 327 327 327 327 327 328 329 332 334 338 339
316 316 315 315 315 313 314 316 317 315 318 319 325 324 325 324 323 323 327 329 324 323 324 325 327 324 324 325 325 325 326 327 326 328 330 328 327 327 327 327 327 330 333 338 341
316 318 314 315 313 315 314 315 316 315 318 320 322 323 324 325 325 325 328 331 332 329 326 325 327 326 325 326 326 328 326 326 328 330 330 329 329 329 329 330 331 332 334 342 345
315 318 314 313 317 315 315 315 314 317 319 319 320 322 324 324 329 330 330 331 331 327 327 328 331 329 326 326 324 326 327 328 330 330 331 331 330 328 329 329 332 336 337 345 348
316 315 315 318 319 318 317 317 318 319 318 318 320 322 323 325 332 331 329 330 330 333 333 330 332 331 330 331 330 330 329 328 332 332 331 333 332 331 331 334 336 341 342 348 350
315 315 318 319 321 322 318 317 317 318 319 318 320 322 325 324 328 331 329 329 329 330 328 329 334 333 330 332 331 331 330 329 331 333 330 329 330 332 334 336 339 342 346 348 350
314 315 320 319 320 322 321 320 318 320 319 320 318 320 325 325 326 329 329 328 328 328 331 334 329 330 328 328 329 331 331 330 331 330 331 330 329 333 334 338 341 345 348 349 350
315 315 321 324 323 321 321 322 322 321 322 321 320 318 323 326 324 325 325 325 326 327 328 331 329 328 327 324 327 328 328 329 329 328 329 329 330 331 337 340 344 345 350 352 351
314 319 323 321 325 323 323 322 322 323 323 323 322 325 323 324 324 326 328 328 327 328 329 329 329 329 325 326 325 325 330 332 333 333 334 335 333 337 338 341 346 346 350 352 348
Wind_Speed
13 16 19 21 23 25 26 26 27 26 27 27 24 21 16 15 9 1 5 3 9 22 18 14 9 9 9 7 6 4 6 4 2 4 6 8 8 5 6 12 4 5 3 19 22
14 17 19 22 24 26 26 27 27 26 27 24 22 18 15 15 6 6 3 9 16 23 19 18 13 12 9 8 5 8 8 3 4 3 2 6 9 9 7 11 9 7 12 22 24
14 17 20 23 25 27 28 28 28 25 26 23 19 15 14 10 7 5 5 14 21 21 14 12 12 13 11 8 8 8 5 4 3 4 4 6 10 9 7 8 7 13 19 20 21
16 18 21 23 26 28 29 30 27 24 23 21 15 12 12 3 1 5 8 17 19 13 13 12 13 13 11 11 9 9 6 2 3 2 4 9 11 8 7 5 7 17 20 20 18
16 19 22 24 27 29 30 31 26 24 21 17 10 9 5 6 5 3 14 19 13 12 14 13 13 13 13 12 10 12 8 5 4 5 5 9 10 7 9 5 12 18 19 18 16
15 18 21 25 27 29 32 28 25 24 16 11 8 7 6 6 3 8 14 14 11 12 14 11 9 8 7 9 14 11 9 6 5 8 6 11 11 8 9 10 15 19 19 18 17
15 18 21 25 28 30 31 28 24 20 12 8 6 5 6 4 2 9 13 12 11 9 11 9 5 9 5 9 8 6 10 8 7 6 7 12 11 12 13 14 16 18 18 17 17
15 18 22 25 29 31 29 27 24 15 8 6 5 4 4 3 2 10 11 8 8 9 4 5 5 5 8 2 7 12 12 12 7 7 3 15 16 17 15 15 16 18 17 17 19
15 18 21 25 30 30 27 25 18 11 6 6 4 5 3 3 5 10 10 7 10 10 6 4 6 4 6 12 12 13 13 17 8 9 4 14 7 19 16 15 14 17 17 18 18
15 18 20 24 29 26 24 19 7 4 4 3 4 5 5 5 4 7 10 9 11 12 9 8 7 9 10 10 14 16 18 9 11 12 11 16 11 5 13 16 14 17 18 18 19
14 17 19 23 26 23 22 7 5 5 6 8 6 7 4 1 4 8 11 11 11 14 13 12 10 12 14 13 10 12 11 15 11 7 12 15 16 11 10 13 14 16 17 18 19
13 15 18 22 16 17 10 5 6 6 10 13 13 10 12 5 3 8 12 12 10 13 11 8 13 5 2 6 9 9 13 13 8 5 12 14 14 13 14 13 15 15 18 19 19
12 13 17 21 9 11 7 7 6 5 6 3 5 5 5 12 8 12 16 11 12 11 14 14 2 8 10 8 10 12 13 12 13 9 9 5 13 13 15 12 14 17 17 18 20
10 11 15 16 2 11 2 8 12 4 5 7 6 5 7 7 8 7 17 10 6 9 8 10 9 9 11 12 11 13 13 10 9 11 13 17 13 15 16 17 15 19 19 22 22
8 10 12 12 9 6 6 13 8 4 5 4 6 6 6 9 12 9 11 8 8 8 7 6 9 14 13 10 10 12 5 14 13 13 16 12 10 14 12 12 18 18 18 21 23
8 8 11 7 8 6 12 13 3 6 5 5 5 7 11 10 7 8 10 4 2 5 5 1 1 6 12 5 9 6 8 8 9 13 15 19 16 15 13 16 16 19 19 19 20
7 8 11 8 6 11 12 6 6 7 2 6 4 4 8 12 11 11 14 12 9 8 11 9 12 9 6 10 9 9 9 8 11 13 16 18 20 13 19 9 16 18 22 14 16
8 10 10 7 8 7 5 5 8 1 3 2 1 4 10 13 11 10 12 13 6 8 3 5 8 13 11 13 9 15 13 11 10 12 14 14 11 14 14 14 16 17 14 14 12
6 5 5 3 4 3 6 9 5 2 3 4 4 10 8 9 7 9 8 10 12 10 5 6 6 4 5 5 9 9 11 9 12 12 9 8 9 6 12 12 13 12 11 8 9
4 5 3 2 3 7 7 13 5 3 4 3 5 4 11 12 11 10 9 3 8 5 5 2 3 3 8 5 7 10 4 7 9 13 16 10 10 9 6 10 12 10 10 2 7
6 4 3 4 7 5 9 11 6 3 4 3 1 3 2 8 8 10 5 7 2 6 7 4 4 8 4 10 6 7 11 9 6 8 9 11 8 1 5 11 13 14 11 7 5
3 5 5 7 6 4 8 6 1 5 4 3 3 3 1 2 6 5 9 5 2 4 6 2 3 6 6 6 3 7 10 4 7 10 8 8 12 13 9 15 14 14 10 5 2
3 3 7 3 6 8 5 9 4 6 5 3 2 1 0 2 3 9 10 5 3 2 2 4 3 6 10 9 6 2 2 3 2 4 11 10 9 4 8 13 11 10 6 1 3
4 6 4 5 2 5 8 8 10 7 8 5 4 3 3 5 1 9 11 5 4 5 3 2 1 6 9 8 5 5 3 6 5 6 9 9 12 10 12 11 9 6 3 1 4
4 2 2 6 9 8 5 3 11 7 9 6 7 8 3 5 8 8 10 10 5 5 2 2 4 5 5 6 7 9 10 9 9 11 12 13 15 10 11 13 10 6 1 3 6
4 3 3 4 3 11 8 10 9 8 6 11 10 10 8 4 2 9 9 6 3 5 2 0 3 5 10 6 7 10 12 13 13 13 12 13 14 8 10 10 8 6 1 7 10
2 1 4 6 7 9 10 9 6 4 9 5 11 8 10 7 1 8 6 5 4 4 3 3 2 5 10 3 8 12 5 7 10 11 13 14 15 22 18 14 10 4 1 8 10
Wind_Direction
355 355 353 351 351 351 349 347 346 344 342 341 336 328 327 329 337 205 220 176 175 171 159 163 181 179 190 204 238 260 236 201 132 236 108 151 166 131 102 137 142 143 260 138 151
349 349 350 349 348 348 346 345 343 341 340 342 335 331 330 334 270 235 251 175 162 162 164 175 179 181 195 204 208 234 249 98 22 4 243 173 195 144 168 151 131 123 109 136 152
342 344 346 346 347 346 344 342 341 340 339 339 332 333 333 337 257 65 149 159 158 157 176 189 178 194 203 200 195 201 246 107 92 5 268 185 175 152 181 186 149 151 146 153 162
338 341 345 344 344 343 343 340 338 337 337 334 330 334 330 273 343 87 153 155 154 169 173 178 182 197 208 201 192 231 233 218 48 9 221 182 150 179 196 55 120 150 156 162 171
336 339 341 342 343 342 341 337 336 335 333 333 334 336 320 251 80 114 148 156 160 171 182 185 188 205 211 206 196 238 197 229 266 275 246 175 175 159 178 107 143 151 161 170 179
332 337 339 339 340 341 340 336 331 332 331 333 335 333 284 257 83 144 159 172 185 188 182 189 199 217 237 213 213 204 247 240 269 270 224 205 176 186 148 152 148 162 170 176 183
328 334 337 338 340 340 338 334 327 325 324 318 334 337 262 350 118 160 162 177 186 196 183 184 188 219 183 189 216 235 230 224 229 256 228 212 176 213 146 170 159 172 176 181 191
327 333 337 339 340 339 338 330 323 317 313 312 322 280 303 116 126 169 177 183 191 189 223 196 236 271 243 68 199 220 233 219 145 184 178 205 192 187 165 175 173 177 181 188 194
324 331 336 340 340 338 339 327 321 316 303 304 279 267 145 146 190 173 180 181 171 176 179 169 227 253 189 217 208 210 217 219 151 193 175 209 241 142 173 189 183 184 190 198 198
321 329 334 341 342 345 344 330 322 331 301 252 251 236 182 143 129 151 191 168 171 163 172 208 212 214 218 220 218 208 225 206 217 183 214 200 235 150 180 199 199 191 198 203 206
316 325 334 342 342 352 358 323 307 181 325 288 322 300 258 226 191 193 178 185 163 183 192 203 215 215 211 221 287 298 237 216 207 164 209 219 225 192 188 211 214 199 201 210 214
309 323 334 344 346 6 2 57 51 326 301 285 256 261 259 273 210 173 175 192 193 193 201 184 227 196 269 222 238 245 236 230 135 203 216 211 235 239 226 217 229 219 210 210 210
304 323 336 345 343 5 27 56 343 310 261 257 205 233 206 191 210 168 191 204 202 204 203 232 153 164 207 202 228 227 237 224 243 178 219 238 232 243 243 255 244 242 233 221 216
297 324 339 352 335 340 53 341 334 213 268 138 175 148 169 204 202 158 198 191 192 211 202 236 165 186 209 226 227 236 218 250 232 215 219 201 244 209 227 244 242 242 233 231 219
290 318 337 350 319 312 335 327 324 224 242 113 117 125 169 206 123 171 186 209 203 153 214 119 194 215 223 223 203 250 211 230 232 236 258 205 246 261 191 226 244 242 236 228 221
279 309 329 339 307 286 318 316 240 234 221 139 135 175 170 191 169 131 177 213 352 189 224 134 191 210 218 170 215 138 194 196 222 240 236 243 233 247 215 219 245 243 233 232 222
272 295 304 298 310 309 313 269 229 247 111 147 158 188 192 178 174 178 181 189 200 200 204 192 203 211 242 220 184 217 216 219 214 220 242 241 242 249 269 237 251 259 265 224 225
269 289 283 261 285 301 268 225 235 303 235 70 245 189 197 165 171 175 193 197 220 237 168 234 173 197 189 238 236 204 222 252 248 247 246 200 243 254 261 266 273 274 272 286 264
277 266 250 236 273 232 236 221 222 241 355 308 220 190 166 175 192 181 205 222 185 211 251 176 134 147 204 208 228 190 230 266 278 264 271 251 200 258 246 246 252 257 259 252 281
242 239 197 222 216 205 228 241 252 270 323 275 251 271 173 169 173 200 175 149 174 212 249 127 222 179 139 219 224 256 14 229 227 262 257 254 245 271 230 270 277 295 272 310 327
227 224 90 179 166 207 230 223 242 243 280 289 278 215 160 163 193 178 151 121 188 167 213 220 256 150 213 214 187 180 223 232 300 301 284 273 262 10 280 298 310 298 320 353 344
219 213 128 150 210 211 226 212 243 225 216 269 286 280 290 199 159 150 154 73 120 182 182 125 264 251 234 71 324 288 304 297 261 240 240 291 285 299 286 289 299 306 315 14 21
208 119 174 227 229 209 185 223 228 208 213 234 252 300 34 145 138 132 125 83 101 188 148 154 182 239 166 164 160 155 55 216 346 280 263 283 284 34 290 277 289 312 323 306 115
190 172 153 213 312 280 200 207 207 206 247 257 290 256 236 177 148 154 130 94 86 85 12 293 219 298 316 20 358 274 247 269 273 276 299 279 294 299 327 317 306 293 292 214 135
215 181 20 179 199 211 210 179 202 196 219 216 231 237 237 181 155 143 130 137 138 147 163 272 247 258 264 270 265 279 284 280 261 265 272 292 299 297 340 342 333 336 309 130 112
178 187 184 143 164 201 182 193 209 197 221 197 230 215 217 232 204 165 155 166 157 161 172 129 232 261 270 252 254 264 271 278 277 275 274 272 276 297 346 338 339 348 336 119 109
137 159 271 133 177 202 186 208 201 206 215 256 200 215 212 199 46 66 58 85 126 182 172 227 213 246 265 160 292 263 2 329 324 311 327 301 327 341 333 343 346 9 96 112 113